Stations météo

réclame
Mon MeteoGroup
Lugo/Rozas, Espagne (8008): Température de l'air & dewpoint: 12.01.2020 00:00:00 - 18.01.2020 00:00:00 (CET)Lugo/Rozas, Espagne (8008): Vitesse du vent: 12.01.2020 00:00:00 - 18.01.2020 00:00:00 (CET)Lugo/Rozas, Espagne (8008): Direction du vent: 12.01.2020 00:00:00 - 18.01.2020 00:00:00 (CET)Lugo/Rozas, Espagne (8008): reduced air pressure: 12.01.2020 00:00:00 - 18.01.2020 00:00:00 (CET)Lugo/Rozas, Espagne (8008): visibility: 12.01.2020 00:00:00 - 18.01.2020 00:00:00 (CET)Lugo/Rozas, Espagne (8008): Quantités de précipitations: 12.01.2020 00:00:00 - 18.01.2020 00:00:00 (CET)
Date & Time tt [°C] td [°C] ff [km/h] ff [knt] dd ppp [hPa] vv [km] rr [mm]
18.01.2020 00:00:00 - - - - - - - -
17.01.2020 23:00:00 6,5 2,8 5 3 SSE 1030,4 20 0,0
17.01.2020 22:00:00 6,5 3,5 4 2 S 1031,3 20 -
17.01.2020 21:00:00 6,5 3,8 5 3 SSE 1031,4 20 0,0
17.01.2020 20:00:00 6,4 4,1 4 2 S 1031,9 20 0,0
17.01.2020 19:00:00 6,5 4,2 4 2 SSW 1032,1 17 -
17.01.2020 18:00:00 7,8 4,2 2 1 S 1031,7 20 0,0
17.01.2020 17:00:00 8,4 3,4 8 4 WSW 1031,6 8 0,0
17.01.2020 16:00:00 9,1 3,3 11 6 WSW 1031,6 10 -
17.01.2020 15:00:00 8,7 5,1 8 4 W 1031,7 14 0,0
17.01.2020 14:00:00 9,8 3,5 15 8 WSW 1031,7 6 0,0
17.01.2020 13:00:00 8,7 3,9 11 6 WSW 1032,2 25 -
17.01.2020 12:00:00 7,2 5,0 9 5 SW 1032,6 6 0,0
17.01.2020 11:00:00 6,0 4,6 9 5 SSW 1031,9 9 0,0
17.01.2020 10:00:00 4,4 3,5 5 3 SSW 1031,2 20 -
17.01.2020 09:00:00 4,0 3,1 8 4 SSW 1030,2 - 0,0
17.01.2020 08:00:00 4,9 3,9 11 6 WSW 1029,5 4,4 0,6
17.01.2020 07:00:00 5,8 4,9 11 6 SW 1027,7 15 -
17.01.2020 06:00:00 6,2 4,7 13 7 SW 1026,4 - 0,0
17.01.2020 05:00:00 6,6 5,4 9 5 SW 1025,6 3,3 0,2
17.01.2020 04:00:00 6,9 5,8 13 7 SW 1025,2 3,8 -
17.01.2020 03:00:00 6,6 5,7 9 5 SW 1024,4 4,5 0,2
17.01.2020 02:00:00 6,5 5,6 16 9 WSW 1023,9 2,2 5,0
17.01.2020 01:00:00 7,9 6,7 9 5 WSW 1022,9 6 -
17.01.2020 00:00:00 8,2 7,0 13 7 SW 1021,8 2,8 0,0
16.01.2020 23:00:00 8,1 6,7 13 7 SSW 1021,1 11 0,0
16.01.2020 22:00:00 8,2 7,0 11 6 SSW 1021,0 18 -
16.01.2020 21:00:00 7,5 6,9 11 6 SSW 1020,6 20 0,0
16.01.2020 20:00:00 7,9 6,8 11 6 SSW 1019,2 20 1,0
16.01.2020 19:00:00 7,7 6,6 9 5 SSW 1018,8 4,4 -
16.01.2020 18:00:00 8,4 7,0 22 12 WSW 1019,0 2,4 6,0
16.01.2020 17:00:00 10,7 6,8 15 8 SSW 1015,3 6 0,4
16.01.2020 16:00:00 12,2 6,9 21 11 SSW 1015,0 13 -
16.01.2020 15:00:00 12,2 8,1 21 11 SSW 1015,1 13 0,4
16.01.2020 14:00:00 12,3 8,9 21 11 SSW 1015,8 15 0,0
16.01.2020 13:00:00 12,9 9,2 22 12 SSW 1016,2 20 -
16.01.2020 12:00:00 13,7 8,9 26 14 SSW 1015,9 20 0,0
16.01.2020 11:00:00 13,3 8,6 21 11 SSW 1016,5 19 0,0
16.01.2020 10:00:00 13,1 8,4 21 11 SSW 1016,7 25 -
16.01.2020 09:00:00 12,7 8,4 21 11 SSW 1016,3 20 0,0
16.01.2020 08:00:00 12,2 9,2 18 10 SSW 1016,1 20 0,0
16.01.2020 07:00:00 11,7 9,9 18 10 SSW 1016,4 20 -
16.01.2020 06:00:00 11,5 10,6 15 8 SW 1016,9 7 0,4
16.01.2020 05:00:00 11,7 9,9 15 8 SW 1017,4 7 0,4
16.01.2020 04:00:00 13,0 7,4 15 8 SSW 1017,0 20 -
16.01.2020 03:00:00 12,7 7,6 15 8 SSW 1017,2 20 0,0
16.01.2020 02:00:00 12,7 7,8 16 9 SSW 1017,9 20 0,0
16.01.2020 01:00:00 12,8 8,3 15 8 SSW 1018,3 20 -
16.01.2020 00:00:00 12,5 8,4 11 6 SW 1018,7 20 0,0
15.01.2020 23:00:00 11,6 7,5 9 5 SSW 1018,8 3,1 0,0
15.01.2020 22:00:00 10,6 6,5 8 4 SSW 1019,3 0,9 -
15.01.2020 21:00:00 8,8 5,5 5 3 S 1020,0 8 0,0
15.01.2020 20:00:00 8,6 7,1 4 2 ESE 1020,4 20 0,0
15.01.2020 19:00:00 9,5 6,8 4 2 S 1020,4 20 -
15.01.2020 18:00:00 12,6 8,3 5 3 SW 1019,6 20 0,0
15.01.2020 17:00:00 13,5 7,9 16 9 SW 1019,0 20 0,0
15.01.2020 16:00:00 13,3 7,7 16 9 SW 1018,8 20 -
15.01.2020 15:00:00 12,6 8,1 11 6 SSW 1018,6 20 0,0
15.01.2020 14:00:00 10,4 8,0 8 4 WSW 1019,2 20 0,0
15.01.2020 13:00:00 10,1 7,3 8 4 SSW 1019,7 25 -
15.01.2020 12:00:00 9,4 7,5 8 4 WSW 1020,2 20 0,0
15.01.2020 11:00:00 8,4 7,5 5 3 WSW 1019,2 20 0,0
15.01.2020 10:00:00 8,1 7,5 5 3 SW 1018,0 20 -
15.01.2020 09:00:00 8,2 7,8 11 6 W 1016,7 20 0,2
15.01.2020 08:00:00 8,5 7,9 8 4 SW 1014,9 7 6,0
15.01.2020 07:00:00 10,2 9,6 9 5 SW 1012,4 5 -
15.01.2020 06:00:00 9,8 9,3 13 7 SSW 1010,9 6 11,0
15.01.2020 05:00:00 10,0 9,1 15 8 SSW 1010,9 2,9 3,0
15.01.2020 04:00:00 11,1 8,0 18 10 SSW 1009,7 19 -
15.01.2020 03:00:00 11,1 7,8 21 11 SSW 1009,4 20 0,0
15.01.2020 02:00:00 11,0 7,9 18 10 SSW 1010,2 19 0,0
15.01.2020 01:00:00 11,1 7,2 21 11 SSW 1010,4 20 -
15.01.2020 00:00:00 11,4 6,5 22 12 SSW 1010,4 20 0,0
14.01.2020 23:00:00 11,2 6,1 21 11 SSW 1011,1 20 0,0
14.01.2020 22:00:00 10,8 5,7 18 10 SSW 1011,4 20 -
14.01.2020 21:00:00 10,8 5,5 18 10 SSW 1012,1 20 0,0
14.01.2020 20:00:00 10,9 5,8 15 8 SSW 1012,6 20 0,0
14.01.2020 19:00:00 11,2 5,9 22 12 SSW 1012,7 20 -
14.01.2020 18:00:00 10,9 6,2 22 12 SSW 1012,2 20 0,0
14.01.2020 17:00:00 10,9 6,8 24 13 SSW 1012,7 20 0,0
14.01.2020 16:00:00 11,7 7,0 21 11 SW 1012,5 18 -
14.01.2020 15:00:00 13,2 5,8 18 10 SSW 1012,2 20 0,0
14.01.2020 14:00:00 13,7 5,3 26 14 SW 1012,9 20 0,0
14.01.2020 13:00:00 11,9 5,5 18 10 SSW 1014,7 20 -
14.01.2020 12:00:00 11,6 5,7 26 14 SSW 1015,5 20 0,0
14.01.2020 11:00:00 10,9 5,4 18 10 SSW 1015,2 20 0,0
14.01.2020 10:00:00 10,2 5,4 15 8 SSW 1015,2 20 -
14.01.2020 09:00:00 9,8 5,6 16 9 SSW 1015,2 20 0,0
14.01.2020 08:00:00 9,7 5,5 15 8 SSW 1015,3 20 0,0
14.01.2020 07:00:00 9,8 5,6 15 8 SSW 1014,9 20 -
14.01.2020 06:00:00 9,6 5,6 16 9 SSW 1015,0 20 0,0
14.01.2020 05:00:00 9,6 5,6 16 9 SSW 1015,2 20 0,0
14.01.2020 04:00:00 9,6 5,8 15 8 SSW 1015,6 20 -
14.01.2020 03:00:00 9,5 5,5 15 8 SSW 1015,8 20 0,0
14.01.2020 02:00:00 9,7 5,7 16 9 SSW 1015,9 20 0,0
14.01.2020 01:00:00 9,6 5,4 15 8 SSW 1016,7 20 -
14.01.2020 00:00:00 9,6 5,6 15 8 SSW 1016,9 20 0,0
13.01.2020 23:00:00 9,3 5,3 16 9 SSW 1017,0 20 0,0
13.01.2020 22:00:00 8,9 4,7 16 9 SSW 1017,2 20 -
13.01.2020 21:00:00 8,7 4,5 18 10 SSW 1017,6 20 0,0
13.01.2020 20:00:00 8,8 3,6 21 11 SSW 1018,6 20 0,0
13.01.2020 19:00:00 9,2 3,2 18 10 SSW 1018,2 20 -
13.01.2020 18:00:00 9,5 3,0 15 8 SSW 1017,6 20 0,0
13.01.2020 17:00:00 10,6 2,4 18 10 SW 1017,9 20 0,0
13.01.2020 16:00:00 10,7 1,5 18 10 SSW 1017,8 20 -
13.01.2020 15:00:00 9,8 0,7 21 11 SSW 1018,7 20 0,0
13.01.2020 14:00:00 10,9 0,6 21 11 SW 1019,3 20 0,0
13.01.2020 13:00:00 10,2 0,5 22 12 SSW 1020,7 25 -
13.01.2020 12:00:00 9,6 1,5 13 7 SSW 1022,2 20 0,0
13.01.2020 11:00:00 7,5 1,6 13 7 SSW 1023,3 20 0,0
13.01.2020 10:00:00 6,8 1,1 11 6 SSW 1023,3 25 -
13.01.2020 09:00:00 6,0 1,3 4 2 SSW 1023,7 20 0,0
13.01.2020 08:00:00 6,9 1,6 13 7 SSW 1023,3 20 0,0
13.01.2020 07:00:00 7,4 2,1 11 6 S 1023,4 20 -
13.01.2020 06:00:00 7,5 2,4 8 4 S 1023,8 20 0,0
13.01.2020 05:00:00 6,7 2,6 4 2 SSE 1025,0 20 0,0
13.01.2020 04:00:00 7,5 2,6 5 3 S 1025,4 20 -
13.01.2020 03:00:00 8,3 2,7 9 5 SSW 1025,9 20 0,0
13.01.2020 02:00:00 7,7 3,2 5 3 S 1027,1 20 0,0
13.01.2020 01:00:00 7,6 3,4 5 3 S 1028,2 20 -
13.01.2020 00:00:00 6,8 4,3 4 2 SSE 1029,2 20 0,0
12.01.2020 23:00:00 6,2 4,8 2 1 WSW 1029,5 18 0,0
12.01.2020 22:00:00 5,8 4,6 4 2 SSE 1029,8 19 -
12.01.2020 21:00:00 6,5 4,8 2 1 S 1030,0 20 0,0
12.01.2020 20:00:00 6,6 4,9 2 1 SW 1030,6 20 0,0
12.01.2020 19:00:00 7,9 4,5 4 2 S 1030,0 20 -
12.01.2020 18:00:00 11,8 5,0 2 1 NNW 1029,4 20 0,0
12.01.2020 17:00:00 13,8 3,5 5 3 SW 1028,9 20 0,0
12.01.2020 16:00:00 13,9 3,4 4 2 WNW 1029,0 20 -
12.01.2020 15:00:00 11,6 4,1 4 2 ENE 1029,8 20 0,0
12.01.2020 14:00:00 8,9 4,1 4 2 NNE 1031,3 20 0,0
12.01.2020 13:00:00 5,2 3,5 4 2 N 1033,2 17 -
12.01.2020 12:00:00 2,9 2,2 4 2 NNW 1034,4 18 0,0
12.01.2020 11:00:00 0,8 0,8 4 2 NNW 1034,9 12 0,0
12.01.2020 10:00:00 -0,8 -0,9 2 1 NNE 1035,0 10 -
12.01.2020 09:00:00 -1,8 -1,9 2 1 SE 1034,9 14 0,0
12.01.2020 08:00:00 -2,4 -2,5 4 2 SE 1034,8 15 0,0
12.01.2020 07:00:00 -2,4 -3,1 2 1 SSE 1034,5 15 -
12.01.2020 06:00:00 -2,5 -3,1 2 1 WSW 1034,3 16 0,0
12.01.2020 05:00:00 -2,5 -3,1 2 1 NNE 1034,3 13 0,0
12.01.2020 04:00:00 -1,9 -2,7 0 0 N 1034,4 12 -
12.01.2020 03:00:00 -1,6 -2,2 4 2 S 1034,1 - 0,0
12.01.2020 02:00:00 -1,2 -1,8 2 1 NW 1034,1 4,2 0,0
12.01.2020 01:00:00 -0,3 -1,0 2 1 NW 1033,9 9 -
12.01.2020 00:00:00 0,2 -0,5 0 0 N 1034,4 9 0,0

tt = Température de l'air
td = dewpoint
ff = Vitesse du vent
dd = Direction du vent
ppp = reduced air pressure
vv = visibility
rr = Quantités de précipitations

stations d'obs. à proximité